owner,sensor,date,latitude,longitude,vertical_datum,mass_concentration_of_oxygen_in_sea_water,qcFlag 
SCCF RECON,ioos:station:SCCF:18:1,2017-07-01T00:00:00Z,26.6955,-81.8138,1.477,2.43,1111122 
SCCF RECON,ioos:station:SCCF:18:1,2017-07-01T01:00:00Z,26.6955,-81.8138,1.522,2.23,1111122 
SCCF RECON,ioos:station:SCCF:18:1,2017-07-01T02:00:00Z,26.6955,-81.8138,1.529,2.49,1111122 
SCCF RECON,ioos:station:SCCF:18:1,2017-07-01T03:00:00Z,26.6955,-81.8138,1.529,2.58,1111122 
SCCF RECON,ioos:station:SCCF:18:1,2017-07-01T04:00:00Z,26.6955,-81.8138,1.498,2.48,1111122 
SCCF RECON,ioos:station:SCCF:18:1,2017-07-01T05:00:00Z,26.6955,-81.8138,1.44,2.65,1111122 
SCCF RECON,ioos:station:SCCF:18:1,2017-07-01T06:00:00Z,26.6955,-81.8138,1.378,2.87,1111122 
SCCF RECON,ioos:station:SCCF:18:1,2017-07-01T07:00:00Z,26.6955,-81.8138,1.325,2.47,1111122 
SCCF RECON,ioos:station:SCCF:18:1,2017-07-01T08:00:00Z,26.6955,-81.8138,1.283,2.87,1111122 
SCCF RECON,ioos:station:SCCF:18:1,2017-07-01T09:00:00Z,26.6955,-81.8138,1.254,2.49,1111122 
SCCF RECON,ioos:station:SCCF:18:1,2017-07-01T10:00:00Z,26.6955,-81.8138,1.275,2.61,1111122 
SCCF RECON,ioos:station:SCCF:18:1,2017-07-01T11:00:00Z,26.6955,-81.8138,1.358,2.76,1111122 
SCCF RECON,ioos:station:SCCF:18:1,2017-07-01T12:00:00Z,26.6955,-81.8138,1.453,2.41,1111122 
SCCF RECON,ioos:station:SCCF:18:1,2017-07-01T13:00:00Z,26.6955,-81.8138,1.514,2.43,1111122 
SCCF RECON,ioos:station:SCCF:18:1,2017-07-01T14:00:00Z,26.6955,-81.8138,1.555,2.18,1111122 
SCCF RECON,ioos:station:SCCF:18:1,2017-07-01T15:00:00Z,26.6955,-81.8138,1.604,2.33,1111122 
SCCF RECON,ioos:station:SCCF:18:1,2017-07-01T16:00:00Z,26.6955,-81.8138,1.605,2.27,1111122 
SCCF RECON,ioos:station:SCCF:18:1,2017-07-01T17:00:00Z,26.6955,-81.8138,1.557,3.13,1111122 
SCCF RECON,ioos:station:SCCF:18:1,2017-07-01T18:00:00Z,26.6955,-81.8138,1.488,3.15,1111122 
SCCF RECON,ioos:station:SCCF:18:1,2017-07-01T19:00:00Z,26.6955,-81.8138,1.434,2.91,1111122 
SCCF RECON,ioos:station:SCCF:18:1,2017-07-01T20:00:00Z,26.6955,-81.8138,1.386,3.1,1111122 
SCCF RECON,ioos:station:SCCF:18:1,2017-07-01T21:00:00Z,26.6955,-81.8138,1.347,2.96,1111122 
SCCF RECON,ioos:station:SCCF:18:1,2017-07-01T22:00:00Z,26.6955,-81.8138,1.324,2.91,1111122 
SCCF RECON,ioos:station:SCCF:18:1,2017-07-01T23:00:00Z,26.6955,-81.8138,1.309,2.49,1111122 
SCCF RECON,ioos:station:SCCF:18:1,2017-07-02T00:00:00Z,26.6955,-81.8138,1.353,3.44,1111122 
SCCF RECON,ioos:station:SCCF:18:1,2017-07-02T01:00:00Z,26.6955,-81.8138,1.367,3.17,1111122 
SCCF RECON,ioos:station:SCCF:18:1,2017-07-02T02:00:00Z,26.6955,-81.8138,1.418,3.15,1111122 
SCCF RECON,ioos:station:SCCF:18:1,2017-07-02T03:00:00Z,26.6955,-81.8138,1.448,3.39,1111122 
SCCF RECON,ioos:station:SCCF:18:1,2017-07-02T04:00:00Z,26.6955,-81.8138,1.449,3.63,1111122 
SCCF RECON,ioos:station:SCCF:18:1,2017-07-02T05:00:00Z,26.6955,-81.8138,1.419,3.08,1111122 
SCCF RECON,ioos:station:SCCF:18:1,2017-07-02T06:00:00Z,26.6955,-81.8138,1.383,3.37,1111122 
SCCF RECON,ioos:station:SCCF:18:1,2017-07-02T07:00:00Z,26.6955,-81.8138,1.34,3.14,1111122 
SCCF RECON,ioos:station:SCCF:18:1,2017-07-02T08:00:00Z,26.6955,-81.8138,1.309,3.24,1111122 
SCCF RECON,ioos:station:SCCF:18:1,2017-07-02T09:00:00Z,26.6955,-81.8138,1.276,3.08,1111122 
SCCF RECON,ioos:station:SCCF:18:1,2017-07-02T10:00:00Z,26.6955,-81.8138,1.267,2.96,1111122 
SCCF RECON,ioos:station:SCCF:18:1,2017-07-02T11:00:00Z,26.6955,-81.8138,1.303,2.85,1111122 
SCCF RECON,ioos:station:SCCF:18:1,2017-07-02T12:00:00Z,26.6955,-81.8138,1.393,2.89,1111122 
SCCF RECON,ioos:station:SCCF:18:1,2017-07-02T13:00:00Z,26.6955,-81.8138,1.48,2.6,1111122 
SCCF RECON,ioos:station:SCCF:18:1,2017-07-02T14:00:00Z,26.6955,-81.8138,1.533,2.79,1111122 
SCCF RECON,ioos:station:SCCF:18:1,2017-07-02T15:00:00Z,26.6955,-81.8138,1.577,2.76,1111122 
SCCF RECON,ioos:station:SCCF:18:1,2017-07-02T16:00:00Z,26.6955,-81.8138,1.611,2.65,1111122 
SCCF RECON,ioos:station:SCCF:18:1,2017-07-02T17:00:00Z,26.6955,-81.8138,1.599,3.06,1111122 
SCCF RECON,ioos:station:SCCF:18:1,2017-07-02T18:00:00Z,26.6955,-81.8138,1.533,3.32,1111122 
SCCF RECON,ioos:station:SCCF:18:1,2017-07-02T19:00:00Z,26.6955,-81.8138,1.459,3.55,1111122 
SCCF RECON,ioos:station:SCCF:18:1,2017-07-02T20:00:00Z,26.6955,-81.8138,1.396,3.03,1111122 
SCCF RECON,ioos:station:SCCF:18:1,2017-07-02T21:00:00Z,26.6955,-81.8138,1.348,3.51,1111122 
SCCF RECON,ioos:station:SCCF:18:1,2017-07-02T22:00:00Z,26.6955,-81.8138,1.299,3.2,1111122 
SCCF RECON,ioos:station:SCCF:18:1,2017-07-02T23:00:00Z,26.6955,-81.8138,1.272,3.63,1111122 
SCCF RECON,ioos:station:SCCF:18:1,2017-07-03T00:00:00Z,26.6955,-81.8138,1.268,3.85,1111122 
SCCF RECON,ioos:station:SCCF:18:1,2017-07-03T01:00:00Z,26.6955,-81.8138,1.327,3.66,1111122 
SCCF RECON,ioos:station:SCCF:18:1,2017-07-03T02:00:00Z,26.6955,-81.8138,1.373,3.66,1111122 
SCCF RECON,ioos:station:SCCF:18:1,2017-07-03T03:00:00Z,26.6955,-81.8138,1.397,3.18,1111122 
SCCF RECON,ioos:station:SCCF:18:1,2017-07-03T04:00:00Z,26.6955,-81.8138,1.449,3.31,1111122 
SCCF RECON,ioos:station:SCCF:18:1,2017-07-03T05:00:00Z,26.6955,-81.8138,1.464,3.77,1111122 
SCCF RECON,ioos:station:SCCF:18:1,2017-07-03T06:00:00Z,26.6955,-81.8138,1.45,3.33,1111122 
SCCF RECON,ioos:station:SCCF:18:1,2017-07-03T07:00:00Z,26.6955,-81.8138,1.407,3.46,1111122 
SCCF RECON,ioos:station:SCCF:18:1,2017-07-03T08:00:00Z,26.6955,-81.8138,1.366,3.21,1111122 
SCCF RECON,ioos:station:SCCF:18:1,2017-07-03T09:00:00Z,26.6955,-81.8138,1.323,3.08,1111122 
SCCF RECON,ioos:station:SCCF:18:1,2017-07-03T10:00:00Z,26.6955,-81.8138,1.297,3.05,1111122 
SCCF RECON,ioos:station:SCCF:18:1,2017-07-03T11:00:00Z,26.6955,-81.8138,1.294,2.69,1111122 
SCCF RECON,ioos:station:SCCF:18:1,2017-07-03T12:00:00Z,26.6955,-81.8138,1.355,2.8,1111122 
SCCF RECON,ioos:station:SCCF:18:1,2017-07-03T13:00:00Z,26.6955,-81.8138,1.445,2.49,1111122 
SCCF RECON,ioos:station:SCCF:18:1,2017-07-03T14:00:00Z,26.6955,-81.8138,1.52,2.32,1111122 
SCCF RECON,ioos:station:SCCF:18:1,2017-07-03T15:00:00Z,26.6955,-81.8138,1.569,2.4,1111122 
SCCF RECON,ioos:station:SCCF:18:1,2017-07-03T16:00:00Z,26.6955,-81.8138,1.618,2.45,1111122 
SCCF RECON,ioos:station:SCCF:18:1,2017-07-03T17:00:00Z,26.6955,-81.8138,1.653,2.3,1111122 
SCCF RECON,ioos:station:SCCF:18:1,2017-07-03T18:00:00Z,26.6955,-81.8138,1.631,2.95,1111122 
SCCF RECON,ioos:station:SCCF:18:1,2017-07-03T19:00:00Z,26.6955,-81.8138,1.545,2.74,1111122 
SCCF RECON,ioos:station:SCCF:18:1,2017-07-03T20:00:00Z,26.6955,-81.8138,1.454,3.15,1111122 
SCCF RECON,ioos:station:SCCF:18:1,2017-07-03T21:00:00Z,26.6955,-81.8138,1.39,2.89,1111122 
SCCF RECON,ioos:station:SCCF:18:1,2017-07-03T22:00:00Z,26.6955,-81.8138,1.346,2.8,1111122 
SCCF RECON,ioos:station:SCCF:18:1,2017-07-03T23:00:00Z,26.6955,-81.8138,1.306,3.41,1111122 
SCCF RECON,ioos:station:SCCF:18:1,2017-07-04T00:00:00Z,26.6955,-81.8138,1.285,3.06,1111122 
SCCF RECON,ioos:station:SCCF:18:1,2017-07-04T01:00:00Z,26.6955,-81.8138,1.245,3.14,1111122 
SCCF RECON,ioos:station:SCCF:18:1,2017-07-04T02:00:00Z,26.6955,-81.8138,1.287,3.27,1111122 
SCCF RECON,ioos:station:SCCF:18:1,2017-07-04T03:00:00Z,26.6955,-81.8138,1.312,2.91,1111122 
SCCF RECON,ioos:station:SCCF:18:1,2017-07-04T04:00:00Z,26.6955,-81.8138,1.392,2.83,1111122 
SCCF RECON,ioos:station:SCCF:18:1,2017-07-04T05:00:00Z,26.6955,-81.8138,1.431,2.67,1111122 
SCCF RECON,ioos:station:SCCF:18:1,2017-07-04T06:00:00Z,26.6955,-81.8138,1.443,3.12,1111122 
SCCF RECON,ioos:station:SCCF:18:1,2017-07-04T07:00:00Z,26.6955,-81.8138,1.446,2.55,1111122 
SCCF RECON,ioos:station:SCCF:18:1,2017-07-04T08:00:00Z,26.6955,-81.8138,1.452,2.84,1111122 
SCCF RECON,ioos:station:SCCF:18:1,2017-07-04T09:00:00Z,26.6955,-81.8138,1.413,2.74,1111122 
SCCF RECON,ioos:station:SCCF:18:1,2017-07-04T10:00:00Z,26.6955,-81.8138,1.353,3.17,1111122 
SCCF RECON,ioos:station:SCCF:18:1,2017-07-04T11:00:00Z,26.6955,-81.8138,1.323,2.65,1111122 
SCCF RECON,ioos:station:SCCF:18:1,2017-07-04T12:00:00Z,26.6955,-81.8138,1.343,2.82,1111122 
SCCF RECON,ioos:station:SCCF:18:1,2017-07-04T13:00:00Z,26.6955,-81.8138,1.427,2.71,1111122 
SCCF RECON,ioos:station:SCCF:18:1,2017-07-04T14:00:00Z,26.6955,-81.8138,1.514,2.37,1111122 
SCCF RECON,ioos:station:SCCF:18:1,2017-07-04T15:00:00Z,26.6955,-81.8138,1.575,2.78,1111122 
SCCF RECON,ioos:station:SCCF:18:1,2017-07-04T16:00:00Z,26.6955,-81.8138,1.61,2.31,1111122 
SCCF RECON,ioos:station:SCCF:18:1,2017-07-04T17:00:00Z,26.6955,-81.8138,1.652,2.31,1111122 
SCCF RECON,ioos:station:SCCF:18:1,2017-07-04T18:00:00Z,26.6955,-81.8138,1.673,2.28,1111122 
SCCF RECON,ioos:station:SCCF:18:1,2017-07-04T19:00:00Z,26.6955,-81.8138,1.619,2.53,1111122 
SCCF RECON,ioos:station:SCCF:18:1,2017-07-04T20:00:00Z,26.6955,-81.8138,1.531,3.15,1111122 
SCCF RECON,ioos:station:SCCF:18:1,2017-07-04T21:00:00Z,26.6955,-81.8138,1.54,2.65,1111122 
SCCF RECON,ioos:station:SCCF:18:1,2017-07-04T22:00:00Z,26.6955,-81.8138,1.422,2.85,1111122 
SCCF RECON,ioos:station:SCCF:18:1,2017-07-04T23:00:00Z,26.6955,-81.8138,1.351,2.83,1111122 
SCCF RECON,ioos:station:SCCF:18:1,2017-07-05T00:00:00Z,26.6955,-81.8138,1.306,2.75,1111122 
SCCF RECON,ioos:station:SCCF:18:1,2017-07-05T01:00:00Z,26.6955,-81.8138,1.274,2.78,1111122 
SCCF RECON,ioos:station:SCCF:18:1,2017-07-05T02:00:00Z,26.6955,-81.8138,1.247,2.89,1111122 
SCCF RECON,ioos:station:SCCF:18:1,2017-07-05T03:00:00Z,26.6955,-81.8138,1.266,2.48,1111122 
SCCF RECON,ioos:station:SCCF:18:1,2017-07-05T04:00:00Z,26.6955,-81.8138,1.331,2.36,1111122 
SCCF RECON,ioos:station:SCCF:18:1,2017-07-05T05:00:00Z,26.6955,-81.8138,1.398,2.2,1111122 
SCCF RECON,ioos:station:SCCF:18:1,2017-07-05T06:00:00Z,26.6955,-81.8138,1.437,2.16,1111122 
SCCF RECON,ioos:station:SCCF:18:1,2017-07-05T07:00:00Z,26.6955,-81.8138,1.462,2.36,1111122 
SCCF RECON,ioos:station:SCCF:18:1,2017-07-05T08:00:00Z,26.6955,-81.8138,1.466,2.25,1111122 
SCCF RECON,ioos:station:SCCF:18:1,2017-07-05T09:00:00Z,26.6955,-81.8138,1.444,2.97,1111122 
SCCF RECON,ioos:station:SCCF:18:1,2017-07-05T10:00:00Z,26.6955,-81.8138,1.398,2.41,1111122 
SCCF RECON,ioos:station:SCCF:18:1,2017-07-05T11:00:00Z,26.6955,-81.8138,1.367,2.54,1111122 
SCCF RECON,ioos:station:SCCF:18:1,2017-07-05T12:00:00Z,26.6955,-81.8138,1.353,2.43,1111122 
SCCF RECON,ioos:station:SCCF:18:1,2017-07-05T13:00:00Z,26.6955,-81.8138,1.38,2.54,1111122 
SCCF RECON,ioos:station:SCCF:18:1,2017-07-05T14:00:00Z,26.6955,-81.8138,1.447,2.36,1111122 
SCCF RECON,ioos:station:SCCF:18:1,2017-07-05T15:00:00Z,26.6955,-81.8138,1.533,2.46,1111122 
SCCF RECON,ioos:station:SCCF:18:1,2017-07-05T16:00:00Z,26.6955,-81.8138,1.583,2.34,1111122 
SCCF RECON,ioos:station:SCCF:18:1,2017-07-05T17:00:00Z,26.6955,-81.8138,1.631,2.48,1111122 
SCCF RECON,ioos:station:SCCF:18:1,2017-07-05T18:00:00Z,26.6955,-81.8138,1.665,2.37,1111122 
SCCF RECON,ioos:station:SCCF:18:1,2017-07-05T19:00:00Z,26.6955,-81.8138,1.647,2.92,1111122 
SCCF RECON,ioos:station:SCCF:18:1,2017-07-05T20:00:00Z,26.6955,-81.8138,1.561,3.37,1111122 
SCCF RECON,ioos:station:SCCF:18:1,2017-07-05T21:00:00Z,26.6955,-81.8138,1.472,2.91,1111122 
SCCF RECON,ioos:station:SCCF:18:1,2017-07-05T22:00:00Z,26.6955,-81.8138,1.438,2.95,1111122 
SCCF RECON,ioos:station:SCCF:18:1,2017-07-05T23:00:00Z,26.6955,-81.8138,1.408,2.96,1111122 
SCCF RECON,ioos:station:SCCF:18:1,2017-07-06T00:00:00Z,26.6955,-81.8138,1.362,3.19,1111122 
SCCF RECON,ioos:station:SCCF:18:1,2017-07-06T01:00:00Z,26.6955,-81.8138,1.292,2.96,1111122 
SCCF RECON,ioos:station:SCCF:18:1,2017-07-06T02:00:00Z,26.6955,-81.8138,1.246,2.84,1111122 
SCCF RECON,ioos:station:SCCF:18:1,2017-07-06T03:00:00Z,26.6955,-81.8138,1.234,2.51,1111122 
SCCF RECON,ioos:station:SCCF:18:1,2017-07-06T04:00:00Z,26.6955,-81.8138,1.263,2.65,1111122 
SCCF RECON,ioos:station:SCCF:18:1,2017-07-06T05:00:00Z,26.6955,-81.8138,1.335,2.52,1111122 
SCCF RECON,ioos:station:SCCF:18:1,2017-07-06T06:00:00Z,26.6955,-81.8138,1.397,2.49,1111122 
SCCF RECON,ioos:station:SCCF:18:1,2017-07-06T07:00:00Z,26.6955,-81.8138,1.447,2.45,1111122 
SCCF RECON,ioos:station:SCCF:18:1,2017-07-06T08:00:00Z,26.6955,-81.8138,1.469,2.5,1111122 
SCCF RECON,ioos:station:SCCF:18:1,2017-07-06T09:00:00Z,26.6955,-81.8138,1.467,2.93,1111122 
SCCF RECON,ioos:station:SCCF:18:1,2017-07-06T10:00:00Z,26.6955,-81.8138,1.43,2.64,1111122 
SCCF RECON,ioos:station:SCCF:18:1,2017-07-06T11:00:00Z,26.6955,-81.8138,1.383,2.57,1111122 
SCCF RECON,ioos:station:SCCF:18:1,2017-07-06T12:00:00Z,26.6955,-81.8138,1.338,2.56,1111122 
SCCF RECON,ioos:station:SCCF:18:1,2017-07-06T13:00:00Z,26.6955,-81.8138,1.315,2.63,1111122 
SCCF RECON,ioos:station:SCCF:18:1,2017-07-06T14:00:00Z,26.6955,-81.8138,1.344,2.74,1111122 
SCCF RECON,ioos:station:SCCF:18:1,2017-07-06T15:00:00Z,26.6955,-81.8138,1.441,2.96,1111122 
SCCF RECON,ioos:station:SCCF:18:1,2017-07-06T16:00:00Z,26.6955,-81.8138,1.542,2.45,1111122 
SCCF RECON,ioos:station:SCCF:18:1,2017-07-06T17:00:00Z,26.6955,-81.8138,1.594,2.32,1111122 
SCCF RECON,ioos:station:SCCF:18:1,2017-07-06T18:00:00Z,26.6955,-81.8138,1.623,2.22,1111122 
SCCF RECON,ioos:station:SCCF:18:1,2017-07-06T19:00:00Z,26.6955,-81.8138,1.64,2.33,1111122 
SCCF RECON,ioos:station:SCCF:18:1,2017-07-06T20:00:00Z,26.6955,-81.8138,1.619,2.34,1111122 
SCCF RECON,ioos:station:SCCF:18:1,2017-07-06T21:00:00Z,26.6955,-81.8138,1.597,2.63,1111122 
SCCF RECON,ioos:station:SCCF:18:1,2017-07-06T22:00:00Z,26.6955,-81.8138,1.516,2.84,1111122 
SCCF RECON,ioos:station:SCCF:18:1,2017-07-06T23:00:00Z,26.6955,-81.8138,1.406,2.7,1111122 
SCCF RECON,ioos:station:SCCF:18:1,2017-07-07T00:00:00Z,26.6955,-81.8138,1.362,2.7,1111122 
SCCF RECON,ioos:station:SCCF:18:1,2017-07-07T01:00:00Z,26.6955,-81.8138,1.307,2.93,1111122 
SCCF RECON,ioos:station:SCCF:18:1,2017-07-07T02:00:00Z,26.6955,-81.8138,1.257,2.59,1111122 
SCCF RECON,ioos:station:SCCF:18:1,2017-07-07T03:00:00Z,26.6955,-81.8138,1.21,2.66,1111122 
SCCF RECON,ioos:station:SCCF:18:1,2017-07-07T04:00:00Z,26.6955,-81.8138,1.217,2.55,1111122 
SCCF RECON,ioos:station:SCCF:18:1,2017-07-07T05:00:00Z,26.6955,-81.8138,1.268,2.34,1111122 
SCCF RECON,ioos:station:SCCF:18:1,2017-07-07T06:00:00Z,26.6955,-81.8138,1.335,2.06,1111122 
SCCF RECON,ioos:station:SCCF:18:1,2017-07-07T07:00:00Z,26.6955,-81.8138,1.38,2.16,1111122 
SCCF RECON,ioos:station:SCCF:18:1,2017-07-07T08:00:00Z,26.6955,-81.8138,1.405,2.14,1111122 
SCCF RECON,ioos:station:SCCF:18:1,2017-07-07T09:00:00Z,26.6955,-81.8138,1.418,2.14,1111122 
SCCF RECON,ioos:station:SCCF:18:1,2017-07-07T10:00:00Z,26.6955,-81.8138,1.427,2.18,1111122 
SCCF RECON,ioos:station:SCCF:18:1,2017-07-07T11:00:00Z,26.6955,-81.8138,1.414,2.15,1111122 
SCCF RECON,ioos:station:SCCF:18:1,2017-07-07T12:00:00Z,26.6955,-81.8138,1.385,2.6,1111122 
SCCF RECON,ioos:station:SCCF:18:1,2017-07-07T13:00:00Z,26.6955,-81.8138,1.357,2.58,1111122 
SCCF RECON,ioos:station:SCCF:18:1,2017-07-07T14:00:00Z,26.6955,-81.8138,1.387,2.27,1111122 
SCCF RECON,ioos:station:SCCF:18:1,2017-07-07T15:00:00Z,26.6955,-81.8138,1.46,2.1,1111122 
SCCF RECON,ioos:station:SCCF:18:1,2017-07-07T16:00:00Z,26.6955,-81.8138,1.55,1.99,1111122 
SCCF RECON,ioos:station:SCCF:18:1,2017-07-07T17:00:00Z,26.6955,-81.8138,1.604,1.91,1111122 
SCCF RECON,ioos:station:SCCF:18:1,2017-07-07T18:00:00Z,26.6955,-81.8138,1.649,1.94,1111122 
SCCF RECON,ioos:station:SCCF:18:1,2017-07-07T19:00:00Z,26.6955,-81.8138,1.694,2.05,1111122 
SCCF RECON,ioos:station:SCCF:18:1,2017-07-07T20:00:00Z,26.6955,-81.8138,1.695,2.36,1111122 
SCCF RECON,ioos:station:SCCF:18:1,2017-07-07T21:00:00Z,26.6955,-81.8138,1.634,2.35,1111122 
SCCF RECON,ioos:station:SCCF:18:1,2017-07-07T22:00:00Z,26.6955,-81.8138,1.546,2.56,1111122 
SCCF RECON,ioos:station:SCCF:18:1,2017-07-07T23:00:00Z,26.6955,-81.8138,1.465,2.32,1111122 
SCCF RECON,ioos:station:SCCF:18:1,2017-07-08T00:00:00Z,26.6955,-81.8138,1.411,2.53,1111122 
SCCF RECON,ioos:station:SCCF:18:1,2017-07-08T01:00:00Z,26.6955,-81.8138,1.365,2.99,1111122 
SCCF RECON,ioos:station:SCCF:18:1,2017-07-08T02:00:00Z,26.6955,-81.8138,1.31,2.95,1111122 
SCCF RECON,ioos:station:SCCF:18:1,2017-07-08T03:00:00Z,26.6955,-81.8138,1.267,2.87,1111122 
SCCF RECON,ioos:station:SCCF:18:1,2017-07-08T04:00:00Z,26.6955,-81.8138,1.227,2.81,1111122 
SCCF RECON,ioos:station:SCCF:18:1,2017-07-08T05:00:00Z,26.6955,-81.8138,1.251,2.29,1111122 
SCCF RECON,ioos:station:SCCF:18:1,2017-07-08T06:00:00Z,26.6955,-81.8138,1.317,2.0,1111122 
SCCF RECON,ioos:station:SCCF:18:1,2017-07-08T07:00:00Z,26.6955,-81.8138,1.396,1.77,1111122 
SCCF RECON,ioos:station:SCCF:18:1,2017-07-08T08:00:00Z,26.6955,-81.8138,1.447,1.97,1111122 
SCCF RECON,ioos:station:SCCF:18:1,2017-07-08T09:00:00Z,26.6955,-81.8138,1.483,1.93,1111122 
SCCF RECON,ioos:station:SCCF:18:1,2017-07-08T10:00:00Z,26.6955,-81.8138,1.481,2.04,1111122 
SCCF RECON,ioos:station:SCCF:18:1,2017-07-08T11:00:00Z,26.6955,-81.8138,1.444,2.28,1111122 
SCCF RECON,ioos:station:SCCF:18:1,2017-07-08T12:00:00Z,26.6955,-81.8138,1.398,2.15,1111122 
SCCF RECON,ioos:station:SCCF:18:1,2017-07-08T13:00:00Z,26.6955,-81.8138,1.372,2.28,1111122 
SCCF RECON,ioos:station:SCCF:18:1,2017-07-08T14:00:00Z,26.6955,-81.8138,1.362,2.17,1111122 
SCCF RECON,ioos:station:SCCF:18:1,2017-07-08T15:00:00Z,26.6955,-81.8138,1.41,2.14,1111122 
SCCF RECON,ioos:station:SCCF:18:1,2017-07-08T16:00:00Z,26.6955,-81.8138,1.5,1.81,1111122 
SCCF RECON,ioos:station:SCCF:18:1,2017-07-08T17:00:00Z,26.6955,-81.8138,1.586,2.04,1111122 
SCCF RECON,ioos:station:SCCF:18:1,2017-07-08T18:00:00Z,26.6955,-81.8138,1.637,1.97,1111122 
SCCF RECON,ioos:station:SCCF:18:1,2017-07-08T19:00:00Z,26.6955,-81.8138,1.685,2.29,1111122 
SCCF RECON,ioos:station:SCCF:18:1,2017-07-08T20:00:00Z,26.6955,-81.8138,1.727,2.2,1111122 
SCCF RECON,ioos:station:SCCF:18:1,2017-07-08T21:00:00Z,26.6955,-81.8138,1.703,2.3,1111122 
SCCF RECON,ioos:station:SCCF:18:1,2017-07-08T22:00:00Z,26.6955,-81.8138,1.597,2.43,1111122 
SCCF RECON,ioos:station:SCCF:18:1,2017-07-08T23:00:00Z,26.6955,-81.8138,1.522,2.52,1111122 
SCCF RECON,ioos:station:SCCF:18:1,2017-07-09T00:00:00Z,26.6955,-81.8138,1.473,2.9,1111122 
SCCF RECON,ioos:station:SCCF:18:1,2017-07-09T01:00:00Z,26.6955,-81.8138,1.413,2.5,1111122 
SCCF RECON,ioos:station:SCCF:18:1,2017-07-09T02:00:00Z,26.6955,-81.8138,1.35,2.89,1111122 
SCCF RECON,ioos:station:SCCF:18:1,2017-07-09T03:00:00Z,26.6955,-81.8138,1.297,2.47,1111122 
SCCF RECON,ioos:station:SCCF:18:1,2017-07-09T04:00:00Z,26.6955,-81.8138,1.253,2.36,1111122 
SCCF RECON,ioos:station:SCCF:18:1,2017-07-09T05:00:00Z,26.6955,-81.8138,1.235,2.33,1111122 
SCCF RECON,ioos:station:SCCF:18:1,2017-07-09T06:00:00Z,26.6955,-81.8138,1.272,2.36,1111122 
SCCF RECON,ioos:station:SCCF:18:1,2017-07-09T07:00:00Z,26.6955,-81.8138,1.336,2.32,1111122 
SCCF RECON,ioos:station:SCCF:18:1,2017-07-09T08:00:00Z,26.6955,-81.8138,1.398,1.93,1111122 
SCCF RECON,ioos:station:SCCF:18:1,2017-07-09T09:00:00Z,26.6955,-81.8138,1.438,2.13,1111122 
SCCF RECON,ioos:station:SCCF:18:1,2017-07-09T10:00:00Z,26.6955,-81.8138,1.469,2.13,1111122 
SCCF RECON,ioos:station:SCCF:18:1,2017-07-09T11:00:00Z,26.6955,-81.8138,1.483,2.45,1111122 
SCCF RECON,ioos:station:SCCF:18:1,2017-07-09T12:00:00Z,26.6955,-81.8138,1.453,2.56,1111122 
SCCF RECON,ioos:station:SCCF:18:1,2017-07-09T13:00:00Z,26.6955,-81.8138,1.393,2.56,1111122 
SCCF RECON,ioos:station:SCCF:18:1,2017-07-09T14:00:00Z,26.6955,-81.8138,1.364,2.49,1111122 
SCCF RECON,ioos:station:SCCF:18:1,2017-07-09T15:00:00Z,26.6955,-81.8138,1.349,2.22,1111122 
SCCF RECON,ioos:station:SCCF:18:1,2017-07-09T16:00:00Z,26.6955,-81.8138,1.415,2.08,1111122 
SCCF RECON,ioos:station:SCCF:18:1,2017-07-09T17:00:00Z,26.6955,-81.8138,1.514,2.04,1111122 
SCCF RECON,ioos:station:SCCF:18:1,2017-07-09T18:00:00Z,26.6955,-81.8138,1.605,2.17,1111122 
SCCF RECON,ioos:station:SCCF:18:1,2017-07-09T19:00:00Z,26.6955,-81.8138,1.644,2.08,1111122 
SCCF RECON,ioos:station:SCCF:18:1,2017-07-09T20:00:00Z,26.6955,-81.8138,1.695,2.21,1111122 
SCCF RECON,ioos:station:SCCF:18:1,2017-07-09T21:00:00Z,26.6955,-81.8138,1.698,2.28,1111122 
SCCF RECON,ioos:station:SCCF:18:1,2017-07-09T22:00:00Z,26.6955,-81.8138,1.648,2.98,1111122 
SCCF RECON,ioos:station:SCCF:18:1,2017-07-09T23:00:00Z,26.6955,-81.8138,1.554,2.33,1111122 
SCCF RECON,ioos:station:SCCF:18:1,2017-07-10T00:00:00Z,26.6955,-81.8138,1.479,2.36,1111122 
SCCF RECON,ioos:station:SCCF:18:1,2017-07-10T01:00:00Z,26.6955,-81.8138,1.417,2.84,1111122 
SCCF RECON,ioos:station:SCCF:18:1,2017-07-10T02:00:00Z,26.6955,-81.8138,1.366,2.89,1111122 
SCCF RECON,ioos:station:SCCF:18:1,2017-07-10T03:00:00Z,26.6955,-81.8138,1.312,2.82,1111122 
SCCF RECON,ioos:station:SCCF:18:1,2017-07-10T04:00:00Z,26.6955,-81.8138,1.251,2.61,1111122 
SCCF RECON,ioos:station:SCCF:18:1,2017-07-10T05:00:00Z,26.6955,-81.8138,1.21,2.37,1111122 
SCCF RECON,ioos:station:SCCF:18:1,2017-07-10T06:00:00Z,26.6955,-81.8138,1.222,2.23,1111122 
SCCF RECON,ioos:station:SCCF:18:1,2017-07-10T07:00:00Z,26.6955,-81.8138,1.28,1.98,1111122 
SCCF RECON,ioos:station:SCCF:18:1,2017-07-10T08:00:00Z,26.6955,-81.8138,1.363,1.75,1111122 
SCCF RECON,ioos:station:SCCF:18:1,2017-07-10T09:00:00Z,26.6955,-81.8138,1.411,1.96,1111122 
SCCF RECON,ioos:station:SCCF:18:1,2017-07-10T10:00:00Z,26.6955,-81.8138,1.452,2.24,1111122 
SCCF RECON,ioos:station:SCCF:18:1,2017-07-10T11:00:00Z,26.6955,-81.8138,1.466,1.86,1111122 
SCCF RECON,ioos:station:SCCF:18:1,2017-07-10T12:00:00Z,26.6955,-81.8138,1.455,2.25,1111122 
SCCF RECON,ioos:station:SCCF:18:1,2017-07-10T13:00:00Z,26.6955,-81.8138,1.416,2.06,1111122 
SCCF RECON,ioos:station:SCCF:18:1,2017-07-10T14:00:00Z,26.6955,-81.8138,1.377,2.38,1111122 
SCCF RECON,ioos:station:SCCF:18:1,2017-07-10T15:00:00Z,26.6955,-81.8138,1.338,2.68,1111122 
SCCF RECON,ioos:station:SCCF:18:1,2017-07-10T16:00:00Z,26.6955,-81.8138,1.335,2.44,1111122 
SCCF RECON,ioos:station:SCCF:18:1,2017-07-10T17:00:00Z,26.6955,-81.8138,1.417,2.33,1111122 
SCCF RECON,ioos:station:SCCF:18:1,2017-07-10T18:00:00Z,26.6955,-81.8138,1.527,2.11,1111122 
SCCF RECON,ioos:station:SCCF:18:1,2017-07-10T19:00:00Z,26.6955,-81.8138,1.613,2.04,1111122 
SCCF RECON,ioos:station:SCCF:18:1,2017-07-10T20:00:00Z,26.6955,-81.8138,1.7,2.49,1111122 
SCCF RECON,ioos:station:SCCF:18:1,2017-07-10T21:00:00Z,26.6955,-81.8138,1.728,2.47,1111122 
SCCF RECON,ioos:station:SCCF:18:1,2017-07-10T22:00:00Z,26.6955,-81.8138,1.678,2.35,1111122 
SCCF RECON,ioos:station:SCCF:18:1,2017-07-10T23:00:00Z,26.6955,-81.8138,1.607,2.9,1111122 
SCCF RECON,ioos:station:SCCF:18:1,2017-07-11T00:00:00Z,26.6955,-81.8138,1.535,2.6,1111122 
SCCF RECON,ioos:station:SCCF:18:1,2017-07-11T01:00:00Z,26.6955,-81.8138,1.475,2.57,1111122 
SCCF RECON,ioos:station:SCCF:18:1,2017-07-11T02:00:00Z,26.6955,-81.8138,1.42,2.75,1111122 
SCCF RECON,ioos:station:SCCF:18:1,2017-07-11T03:00:00Z,26.6955,-81.8138,1.357,2.68,1111122 
SCCF RECON,ioos:station:SCCF:18:1,2017-07-11T04:00:00Z,26.6955,-81.8138,1.298,2.62,1111122 
SCCF RECON,ioos:station:SCCF:18:1,2017-07-11T05:00:00Z,26.6955,-81.8138,1.251,2.57,1111122 
SCCF RECON,ioos:station:SCCF:18:1,2017-07-11T06:00:00Z,26.6955,-81.8138,1.208,2.34,1111122 
SCCF RECON,ioos:station:SCCF:18:1,2017-07-11T07:00:00Z,26.6955,-81.8138,1.235,2.11,1111122 
SCCF RECON,ioos:station:SCCF:18:1,2017-07-11T08:00:00Z,26.6955,-81.8138,1.308,2.05,1111122 
SCCF RECON,ioos:station:SCCF:18:1,2017-07-11T09:00:00Z,26.6955,-81.8138,1.386,2.03,1111122 
SCCF RECON,ioos:station:SCCF:18:1,2017-07-11T10:00:00Z,26.6955,-81.8138,1.431,2.1,1111122 
SCCF RECON,ioos:station:SCCF:18:1,2017-07-11T11:00:00Z,26.6955,-81.8138,1.461,2.0,1111122 
SCCF RECON,ioos:station:SCCF:18:1,2017-07-11T12:00:00Z,26.6955,-81.8138,1.485,2.06,1111122 
SCCF RECON,ioos:station:SCCF:18:1,2017-07-11T13:00:00Z,26.6955,-81.8138,1.442,2.45,1111122 
SCCF RECON,ioos:station:SCCF:18:1,2017-07-11T14:00:00Z,26.6955,-81.8138,1.379,2.24,1111122 
SCCF RECON,ioos:station:SCCF:18:1,2017-07-11T15:00:00Z,26.6955,-81.8138,1.321,2.48,1111122 
 